Vertical_Velocity
1 2 4 2 2 4 2 -1 -0 -3 2 4 -1 -2 -2 1 3 2 -23 -17 -14 5 0 5 6 9 14 3 3 5 0 -0 -4 -0 -7 3 1 -1 -1 4 1 1 0 1 2
-4 -3 -1 1 -1 -5 -2 -1 3 -2 -1 -2 4 2 -2 -0 -1 -15 -10 -2 1 10 -2 -3 -4 11 5 0 0 -2 2 -8 -6 -4 -2 -1 0 -3 0 2 1 1 1 0 5
3 2 -1 0 -1 -2 2 1 -3 0 -4 3 -2 3 1 4 1 -44 -3 5 -0 7 5 9 9 -0 3 7 0 -1 -5 -4 -2 -4 1 -1 2 2 -1 0 -5 -15 -5 -0 1
-3 -1 -1 0 -1 -2 -1 1 -2 1 1 1 1 -1 0 12 -12 6 3 10 21 32 14 7 11 7 1 -1 -1 1 -1 -1 -4 -3 2 -0 2 1 0 -19 1 5 11 1 -0
1 -4 -3 -6 -9 2 2 -1 -2 0 0 2 1 5 3 3 -38 17 -3 8 6 16 -8 -11 3 -1 -3 -1 3 3 -4 1 -0 2 -1 5 -1 -7 -4 -2 -0 1 1 -0 3
4 3 -2 -2 -4 -8 -6 -9 -3 -1 -1 5 5 5 13 18 -35 5 3 2 11 6 4 14 -18 -12 -2 -1 0 -3 -1 -3 0 -3 0 1 -5 6 -6 2 1 3 -1 1 -0
-5 -2 -4 -4 -2 -10 0 -4 -9 -8 -15 11 3 13 13 -59 -3 6 3 -8 18 3 -3 -0 2 -6 -1 2 -5 -1 3 1 -1 -2 -2 -1 -3 -3 -12 -0 2 0 -0 -1 -4
-1 -0 -0 -3 -2 -0 2 -1 -9 -8 7 -7 8 18 -10 -3 -1 -1 -2 3 6 8 16 13 13 15 2 3 1 -0 3 9 -6 0 -6 1 -23 -7 0 3 -2 -1 1 1 -3
1 0 -1 2 -1 0 5 -3 -4 -6 6 -4 11 5 -12 13 3 11 9 2 4 2 7 10 20 -3 8 -1 2 3 -4 2 0 -2 -2 3 -7 -8 -1 2 -0 -1 -0 -1 5
-3 3 2 1 -6 -1 -3 -1 -5 1 -4 1 22 26 -7 -3 -2 -5 17 5 8 6 14 15 4 2 6 8 -17 -2 0 0 -1 2 3 1 -7 -1 -0 2 -5 2 3 1 0
-12 -9 -9 -10 -4 1 -13 -26 -44 -21 -32 -2 -23 17 -12 14 16 -28 12 -1 13 17 1 1 7 -8 -18 -6 -5 -2 2 -2 0 0 -2 -3 -1 -6 -2 2 1 -2 -1 -2 -6
-3 1 0 -7 -5 2 4 4 16 25 -6 7 4 -2 -2 3 -4 -17 23 10 6 -2 6 6 -5 -17 -1 2 2 4 1 -1 -1 1 -1 0 -6 -5 -0 -3 -4 -2 0 -3 0
1 -3 4 -10 -4 -3 2 6 5 1 7 -21 -9 -4 -8 16 -3 -31 12 2 0 7 -0 -4 -32 1 1 3 8 -0 -2 -2 -4 1 1 -2 -3 -0 -3 2 2 -0 -3 4 -4
2 -2 6 -10 -9 -6 -1 7 5 4 3 -12 -9 2 -12 9 0 18 3 11 6 -4 -0 -5 -11 -0 3 -1 -0 9 -6 -0 -0 -2 -3 -5 -14 -1 -1 -2 1 -2 0 -7 -4
-1 1 0 1 -0 -5 -0 3 3 -2 -4 -23 -6 2 -16 11 4 -12 21 -16 -3 -7 13 -25 2 4 6 -23 1 -15 -2 -4 -1 -0 -2 -2 0 -18 2 -1 -4 -3 -4 -5 -6
2 2 -6 -4 3 0 -1 4 -3 -9 -8 -11 -0 -7 -9 -8 -8 -8 3 -4 -1 5 3 -13 -1 1 -26 -1 -3 -1 -5 -3 -1 -2 2 -16 4 -18 -4 -10 -1 -1 -3 -7 -1
4 -2 -7 -1 -4 -6 -5 -4 -15 -10 -14 -11 -6 -2 1 -2 -11 -0 -2 -4 4 10 5 -1 -3 -1 -4 0 1 4 2 1 0 0 -18 -2 10 -29 -3 -1 -6 -5 -5 -4 2
0 -3 -2 -1 1 -3 -4 -13 -11 1 -0 -6 2 -4 0 4 -7 -8 -3 -0 -6 -3 1 1 6 -1 -1 -8 -15 -5 -8 -8 -6 -3 -8 -0 -4 -25 -5 -5 -3 -1 -4 1 2
1 -2 -1 6 1 0 -4 -6 1 2 0 3 -12 -1 -2 -5 7 -1 1 2 4 2 4 1 -2 2 -1 -0 -16 -4 8 -25 -4 -1 -2 -5 -4 -6 -0 -1 1 -1 2 0 1
-17 -3 -8 -4 -2 -3 -11 2 -1 2 1 0 2 0 1 -1 -5 -4 1 5 1 1 1 -5 -1 -3 -4 1 1 -19 -20 -1 0 -0 -1 -2 -1 -6 -1 -3 -1 0 -1 -2 -3
-7 -8 -4 -4 -5 -15 -3 -3 -1 -2 8 3 -0 -0 -1 2 3 -0 -2 -11 -1 -5 -1 5 5 -9 3 1 -10 2 6 2 -7 -4 -4 -1 -10 -6 -4 -4 -2 -2 0 -3 -2
2 -4 -5 -6 -16 0 -0 3 3 -3 0 -2 2 1 0 -0 0 1 0 2 0 5 0 0 4 0 -1 2 -3 -7 -3 -4 1 1 -1 -2 -15 0 -0 0 1 -1 1 2 -1
2 -6 1 1 -3 -3 -4 -2 1 -1 -1 -1 -0 1 -1 1 -1 2 -0 -5 0 -0 1 -2 -3 -1 4 -2 -4 1 -2 -3 -0 3 -7 4 -11 -1 -0 -1 -1 0 0 2 2
-1 -4 -8 -2 1 -0 1 -1 -3 -3 -1 0 -1 0 -0 -1 -2 -3 -4 -5 0 2 2 2 0 3 0 1 4 -0 0 -0 -1 7 -10 -13 -2 -1 -2 1 -1 -1 2 -2 0
-0 -2 -1 -5 -8 -0 2 1 -1 -2 -1 1 -5 -0 5 1 -3 -1 -4 -10 -5 -3 1 -4 1 4 -4 -1 3 -1 0 -1 4 -11 4 -15 -1 -0 0 1 1 1 -2 0 1
0 0 1 -1 -0 1 -2 -4 3 -9 6 -4 1 -3 3 2 3 -2 11 2 0 -4 -0 -1 -6 2 -4 -2 2 2 -1 0 -0 -1 1 -0 2 5 -2 -1 -1 1 -1 1 2
-6 -1 5 -3 -1 1 -2 -2 -3 3 -10 -0 5 7 0 -4 7 0 5 0 -1 7 -0 1 1 1 -4 0 1 -2 3 1 -0 -0 4 2 9 0 -5 -2 1 -2 5 5 5
Height
1487 1483 1479 1475 1471 1467 1463 1459 1457 1455 1453 1451 1449 1447 1446 1445 1442 1440 1430 1433 1441 1448 1449 1451 1455 1458 1460 1463 1465 1465 1473 1472 1463 1462 1454 1454 1461 1456 1456 1457 1457 1460 1459 1456 1459
1486 1483 1479 1474 1470 1466 1462 1459 1453 1449 1447 1445 1443 1441 1440 1439 1434 1422 1421 1431 1435 1442 1444 1446 1448 1454 1454 1455 1458 1461 1465 1453 1444 1443 1447 1448 1451 1449 1453 1451 1454 1455 1456 1456 1457
1487 1483 1478 1473 1468 1463 1458 1454 1450 1445 1441 1439 1437 1436 1435 1435 1429 1399 1416 1420 1424 1431 1437 1440 1445 1449 1452 1449 1448 1446 1444 1437 1434 1437 1442 1443 1445 1445 1446 1451 1445 1446 1450 1452 1454
1485 1481 1475 1470 1465 1459 1454 1450 1445 1440 1436 1433 1431 1429 1430 1430 1426 1404 1402 1409 1414 1419 1426 1431 1438 1443 1444 1444 1440 1443 1429 1434 1429 1433 1436 1437 1437 1437 1439 1437 1438 1440 1442 1446 1450
1485 1480 1474 1469 1462 1456 1450 1444 1439 1433 1430 1427 1425 1424 1423 1418 1394 1401 1402 1403 1402 1407 1408 1416 1423 1427 1432 1434 1438 1437 1423 1425 1424 1430 1428 1431 1432 1433 1431 1432 1435 1436 1439 1442 1444
1484 1477 1471 1465 1458 1453 1447 1440 1432 1427 1423 1420 1417 1418 1417 1394 1391 1393 1401 1399 1402 1403 1403 1407 1408 1410 1416 1420 1425 1424 1429 1421 1421 1422 1427 1430 1427 1430 1423 1428 1430 1431 1432 1435 1437
1481 1475 1468 1461 1455 1448 1442 1435 1427 1420 1414 1410 1408 1408 1399 1363 1384 1389 1390 1392 1395 1398 1398 1398 1403 1405 1406 1412 1412 1415 1423 1425 1421 1420 1423 1428 1426 1414 1416 1421 1423 1425 1426 1428 1431
1479 1471 1463 1457 1449 1442 1435 1428 1419 1410 1402 1396 1396 1396 1380 1374 1381 1379 1388 1386 1387 1392 1395 1398 1401 1401 1401 1404 1408 1416 1418 1418 1410 1418 1418 1422 1405 1403 1407 1413 1414 1417 1418 1421 1423
1473 1466 1458 1451 1443 1436 1429 1420 1411 1401 1394 1389 1387 1387 1377 1375 1376 1376 1377 1375 1384 1386 1390 1395 1398 1397 1398 1402 1412 1411 1400 1411 1407 1410 1416 1417 1403 1396 1401 1405 1408 1409 1410 1413 1416
1469 1460 1453 1446 1438 1431 1423 1416 1407 1401 1395 1390 1387 1387 1378 1373 1374 1371 1373 1372 1373 1380 1385 1389 1390 1391 1392 1391 1379 1397 1407 1402 1401 1403 1408 1414 1400 1393 1396 1401 1401 1401 1402 1406 1408
1467 1458 1451 1442 1434 1427 1419 1410 1406 1402 1401 1399 1392 1387 1380 1372 1374 1366 1368 1369 1369 1371 1372 1373 1381 1365 1354 1370 1377 1383 1387 1392 1393 1392 1401 1402 1402 1395 1398 1399 1398 1395 1396 1397 1399
1466 1457 1449 1441 1432 1425 1420 1416 1415 1414 1396 1385 1386 1384 1381 1371 1364 1360 1362 1366 1362 1357 1362 1370 1353 1348 1371 1377 1380 1379 1383 1387 1389 1387 1393 1399 1397 1388 1390 1390 1389 1386 1387 1389 1391
1462 1453 1445 1437 1429 1424 1420 1418 1414 1410 1404 1387 1386 1383 1374 1370 1363 1356 1357 1353 1352 1356 1350 1343 1329 1360 1366 1370 1377 1368 1367 1378 1382 1389 1392 1395 1395 1383 1375 1377 1378 1377 1379 1383 1383
1459 1448 1438 1432 1429 1424 1419 1416 1411 1407 1403 1393 1382 1378 1372 1363 1360 1352 1351 1352 1347 1343 1349 1348 1350 1347 1356 1358 1363 1366 1355 1375 1386 1390 1385 1389 1380 1374 1368 1369 1370 1368 1369 1371 1374
1458 1448 1439 1430 1427 1424 1420 1412 1407 1406 1427 1391 1385 1382 1375 1367 1359 1350 1349 1345 1341 1340 1343 1333 1337 1346 1347 1338 1361 1356 1364 1374 1386 1393 1393 1390 1401 1354 1362 1357 1358 1359 1359 1359 1361
1456 1447 1442 1436 1430 1425 1417 1409 1406 1410 1438 1396 1392 1384 1380 1367 1358 1352 1347 1344 1336 1335 1335 1330 1334 1339 1328 1348 1353 1362 1374 1382 1392 1399 1406 1369 1384 1349 1353 1347 1352 1352 1351 1351 1351
1455 1447 1441 1436 1430 1424 1417 1410 1420 1434 1408 1402 1392 1386 1380 1376 1362 1355 1349 1343 1341 1332 1333 1332 1330 1330 1332 1347 1352 1357 1367 1389 1405 1412 1373 1356 1379 1340 1337 1336 1337 1338 1338 1339 1341
1454 1447 1442 1436 1430 1422 1417 1416 1442 1415 1417 1408 1399 1391 1388 1387 1372 1364 1350 1345 1350 1343 1333 1328 1330 1327 1326 1329 1340 1346 1355 1374 1376 1389 1358 1365 1356 1335 1328 1329 1329 1327 1327 1329 1332
1454 1447 1442 1436 1430 1423 1420 1436 1426 1425 1420 1411 1399 1395 1394 1394 1391 1377 1370 1356 1361 1366 1370 1346 1320 1313 1315 1323 1329 1348 1348 1336 1362 1371 1386 1354 1346 1335 1324 1324 1321 1320 1321 1319 1323
1456 1447 1444 1437 1432 1427 1427 1427 1425 1421 1419 1413 1415 1407 1406 1396 1397 1388 1375 1365 1368 1369 1371 1360 1342 1314 1314 1318 1322 1325 1330 1353 1354 1360 1353 1347 1342 1331 1321 1312 1314 1315 1314 1317 1319
1454 1448 1445 1439 1434 1431 1440 1437 1425 1420 1419 1416 1417 1412 1410 1405 1402 1396 1385 1374 1368 1365 1367 1370 1351 1321 1314 1311 1316 1325 1331 1334 1334 1344 1342 1336 1337 1321 1314 1310 1310 1308 1312 1313 1312
1457 1454 1446 1440 1438 1438 1440 1436 1428 1420 1418 1416 1412 1410 1411 1406 1404 1402 1393 1388 1378 1378 1370 1367 1360 1339 1319 1308 1305 1306 1317 1322 1327 1344 1347 1362 1330 1310 1313 1309 1308 1308 1311 1311 1311
1463 1456 1447 1443 1449 1444 1437 1433 1429 1423 1420 1416 1413 1409 1406 1405 1407 1399 1388 1381 1379 1380 1377 1371 1359 1347 1313 1316 1310 1311 1309 1312 1320 1320 1323 1327 1323 1312 1314 1313 1311 1312 1313 1312 1311
1466 1462 1451 1447 1449 1450 1445 1432 1429 1423 1418 1415 1412 1409 1409 1402 1400 1400 1389 1379 1376 1376 1371 1369 1360 1349 1335 1325 1336 1325 1311 1309 1309 1314 1316 1307 1313 1307 1306 1311 1315 1313 1311 1312 1312
1469 1468 1464 1459 1448 1450 1448 1438 1432 1426 1421 1416 1411 1410 1409 1399 1392 1387 1382 1376 1372 1364 1368 1369 1367 1352 1339 1331 1331 1332 1325 1308 1306 1304 1307 1306 1316 1320 1318 1312 1310 1308 1307 1308 1312
1472 1469 1463 1457 1452 1450 1445 1441 1435 1430 1427 1418 1417 1406 1404 1403 1395 1384 1379 1374 1374 1370 1373 1371 1372 1355 1336 1313 1321 1326 1315 1307 1307 1303 1306 1309 1322 1338 1327 1318 1315 1314 1317 1317 1315
1472 1467 1463 1455 1453 1451 1447 1442 1437 1432 1421 1417 1414 1409 1400 1391 1382 1376 1371 1367 1367 1366 1365 1369 1368 1347 1336 1318 1305 1312 1334 1322 1333 1342 1337 1328 1344 1341 1332 1330 1329 1327 1318 1321 1320